Weather in Pertominsk

Russia / Arkhangel'skaya Oblast'     64°47′39″N   38°24′37″E
temp.,
°C
wind,
m/s
gust,
m/s
humid.,
%
clouds,
%
prec.,
mm/h
press.,
hPa
HPBL,
m
28 november, sun
sun2800:00−11wsw119353 0.1 101196
03:00−11se229484 0.1 101196
06:00−9ese369585 0.1 1010193
09:00−9ene358996 0.1 1010204
12:00−8ene4681100 0.1 1010460
15:00−9ne4785100 0.1 1009313
18:00−9ene5784100 0.1 1009453
21:00−8ne5883100 0.1 1009512
29 november, mon
mon2900:00−8ne697480 0.0 1010343
03:00−8ne596893 0.0 1011287
06:00−8ne586617 0.0 1012252
09:00−8ene46685 0.0 1013191
12:00−9e227941 0.0 1015136
15:00−10sse128977 0.1 1015101
18:00−12sse229263 0.1 1015110
21:00−13se2389100 0.1 101487
30 november, tue
tue3000:00−11ese4784100 0.0 1013191
03:00−11ese51185100 0.0 1011342
06:00−10ese71280100 0.0 1007494
09:00−10e81478100 0.0 1004549
12:00−9e81474100 0.0 1000600
15:00−9e91478100 0.0 996626
18:00−9e81379100 0.0 993600
21:00−8e81278100 0.0 989590
1 december, wed
wed100:00−8e81282100 0.0 987632
03:00−7e71085100 0.1 985675
06:00−7ene6891100 0.2 984623
09:00−7e5793100 0.8 984601
12:00−7e4793100 0.7 985546
15:00−7ese3694100 1.3 984459
18:00−8sse239497 0.6 985228
21:00−9wsw1196100 0.9 98585
2 december, thu
thu200:00−9sw2295100 0.2 98585
03:00−8wsw2295100 0.5 984125
06:00−8wsw3495100 0.8 984161
09:00−7wsw2396100 1.6 984169
12:00−6sw2496100 0.8 984168
15:00−6sw2296100 1.6 985140
18:00−5sse1196100 0.4 98774
21:00−6e3495100 0.8 988189